Spokane Fairchild, WA

8:47 AM PDT on July 20, 2017 (GMT -0700)
Fairchild Air Force Base

Weather History for KSKA - November, 2011

Change the Weather History Date:

Tuesday, November 15, 2011

  Actual Average Record
Temperature  
Mean Temperature 30 °F -  
Max Temperature 39 °F 41 °F 59 °F (2001)
Min Temperature 21 °F 29 °F 13 °F (2014)
Degree Days  
Heating Degree Days 35    
Moisture  
Dew Point 16 °F    
Average Humidity 62    
Maximum Humidity 99    
Minimum Humidity 31    
Precipitation  
Precipitation 0.00 in - - ()
Sea Level Pressure  
Sea Level Pressure 30.21 in    
Wind  
Wind Speed 7 mph (WSW)    
Max Wind Speed 16 mph    
Max Gust Speed 23 mph    
Visibility 10 miles    
Events Snow    
Averages and records for this station are not official NWS values.
T = Trace of Precipitation, MM = Missing Value Source: NWS Daily Summary

Daily Weather History Graph

Daily Weather History Graph

Search for Another Location

Airport or City:

Trip Planner

Search our weather history database for the weather conditions in past years. The results will help you decide how hot, cold, wet, or windy it might be!

Date:

Astronomy

Nov. 15, 2011 Rise Set
Actual Time 6:55 AM PST 4:14 PM PST
Civil Twilight 6:21 AM PST 4:47 PM PST
Nautical Twilight 5:44 AM PST 5:25 PM PST
Astronomical Twilight 5:08 AM PST 6:01 PM PST
Moon 8:27 PM PST (11/15) 11:00 AM PST (11/15)
Length of Visible Light 10h 25m
Length of Day
9h 18m
Waning Gibbous, 78% of the Moon is Illuminated
Nov 15
Waning Gibbous
Nov 18
Last Quarter
Nov 24
New
Dec 2
First Quarter
Dec 10
Full

Hourly Weather History & Observations

Time (PST) Temp. Windchill Dew Point Humidity Pressure Visibility Wind Dir Wind Speed Gust Speed Precip Events Conditions
12:41 AM 21.2 °F 14.9 °F 17.6 °F 86% 30.03 in 10.0 mi SSW 4.6 mph - N/A Snow Light Snow
12:55 AM 22.6 °F 18.0 °F 16.2 °F 76% 30.03 in 10.0 mi South 3.5 mph - 0.00 in Snow Light Snow
1:16 AM 23.0 °F 15.8 °F 19.4 °F 86% 30.05 in 10.0 mi South 5.8 mph - N/A   Clear
1:55 AM 21.0 °F 14.6 °F 18.0 °F 88% 30.06 in 10.0 mi South 4.6 mph - 0.00 in Snow Light Snow
2:25 AM 23.0 °F 15.8 °F 17.6 °F 80% 30.06 in 10.0 mi SSW 5.8 mph - N/A   Mostly Cloudy
2:40 AM 23.0 °F 14.7 °F 17.6 °F 80% 30.06 in 10.0 mi South 6.9 mph - N/A Snow Light Snow
2:50 AM 24.8 °F 17.9 °F 17.6 °F 74% 30.06 in 10.0 mi South 5.8 mph - N/A   Overcast
2:55 AM 24.4 °F 16.5 °F 18.7 °F 79% 30.06 in 10.0 mi South 6.9 mph - 0.00 in   Overcast
3:46 AM 24.8 °F 17.9 °F 19.4 °F 80% 30.07 in 10.0 mi South 5.8 mph - N/A   Overcast
3:55 AM 26.2 °F 20.7 °F 21.0 °F 81% 30.06 in 10.0 mi South 4.6 mph - 0.00 in   Overcast
4:10 AM 24.8 °F 19.1 °F 21.2 °F 86% 30.07 in 10.0 mi SSE 4.6 mph - N/A   Overcast
4:55 AM 24.1 °F 16.0 °F 19.6 °F 83% 30.09 in 10.0 mi SSE 6.9 mph - 0.00 in   Mostly Cloudy
5:55 AM 25.2 °F 16.5 °F 18.0 °F 74% 30.09 in 10.0 mi South 8.1 mph - N/A   Mostly Cloudy
6:55 AM 21.0 °F 9.9 °F 20.5 °F 98% 30.12 in 10.0 mi South 10.4 mph - N/A   Partly Cloudy
7:55 AM 23.4 °F 12.2 °F 23.2 °F 99% 30.13 in 10.0 mi WSW 11.5 mph - N/A   Partly Cloudy
8:13 AM 26.6 °F 18.2 °F 24.8 °F 93% 30.13 in 10.0 mi WSW 8.1 mph - N/A   Clear
8:40 AM 26.6 °F 21.2 °F 24.8 °F 93% 30.14 in 10.0 mi West 4.6 mph - N/A   Clear
8:55 AM 27.0 °F 18.7 °F 24.8 °F 92% 30.15 in 10.0 mi WNW 8.1 mph - 0.00 in   Clear
9:29 AM 28.4 °F 23.3 °F 24.8 °F 86% 30.17 in 10.0 mi WNW 4.6 mph - N/A   Mostly Cloudy
9:44 AM 30.2 °F 26.7 °F 24.8 °F 80% 30.18 in 10.0 mi WNW 3.5 mph - N/A   Mostly Cloudy
9:55 AM 32.7 °F - 23.7 °F 69% 30.18 in 10.0 mi Calm Calm - 0.00 in   Mostly Cloudy
10:30 AM 33.8 °F 23.9 °F 24.8 °F 70% 30.19 in 10.0 mi NW 15.0 mph - N/A   Scattered Clouds
10:39 AM 33.8 °F 24.8 °F 23.0 °F 65% 30.19 in 10.0 mi NNW 12.7 mph - N/A   Partly Cloudy
10:55 AM 34.9 °F 27.1 °F 22.8 °F 61% 30.20 in 10.0 mi North 10.4 mph - 0.00 in   Clear
11:28 AM 37.4 °F 30.3 °F 21.2 °F 52% 30.20 in 10.0 mi North 10.4 mph - N/A   Mostly Cloudy
11:55 AM 37.9 °F 29.6 °F 19.9 °F 48% 30.20 in 10.0 mi North 13.8 mph - 0.00 in   Partly Cloudy
12:02 PM 37.4 °F 28.5 °F 19.4 °F 48% 30.20 in 10.0 mi NNE 15.0 mph - N/A   Clear
12:15 PM 39.2 °F 30.5 °F 15.8 °F 39% 30.21 in 10.0 mi North 16.1 mph 23.0 mph N/A   Clear
12:25 PM 39.2 °F 31.6 °F 15.8 °F 39% 30.21 in 10.0 mi NNE 12.7 mph - N/A   Clear
12:27 PM 39.2 °F 32.0 °F 15.8 °F 39% 30.21 in 10.0 mi NNE 11.5 mph - N/A   Clear
12:31 PM 39.2 °F 31.2 °F 15.8 °F 39% 30.21 in 10.0 mi NNE 13.8 mph - N/A   Clear
12:34 PM 39.2 °F 32.0 °F 15.8 °F 39% 30.21 in 10.0 mi NNE 11.5 mph - N/A   Clear
12:37 PM 37.4 °F 28.2 °F 15.8 °F 41% 30.21 in 10.0 mi NNE 16.1 mph - N/A   Clear
12:55 PM 38.8 °F 31.6 °F 15.1 °F 38% 30.22 in 10.0 mi West 11.5 mph - 0.00 in   Clear
1:03 PM 39.2 °F 31.6 °F 12.2 °F 33% 30.22 in 10.0 mi West 12.7 mph - N/A   Clear
1:18 PM 39.2 °F 31.6 °F 10.4 °F 31% 30.22 in 10.0 mi West 12.7 mph - N/A   Clear
1:55 PM 39.0 °F 33.4 °F 10.2 °F 31% 30.24 in 10.0 mi West 8.1 mph - N/A   Clear
2:55 PM 38.1 °F 30.7 °F 9.5 °F 31% 30.25 in 10.0 mi West 11.5 mph - N/A   Clear
3:55 PM 34.9 °F 29.9 °F 10.8 °F 37% 30.27 in 10.0 mi WNW 5.8 mph - N/A   Clear
4:55 PM 27.5 °F 20.2 °F 11.1 °F 50% 30.30 in 10.0 mi West 6.9 mph - N/A   Clear
5:47 PM 24.8 °F 17.9 °F 14.0 °F 64% 30.33 in 10.0 mi SW 5.8 mph - N/A   Clear
5:55 PM 25.7 °F 18.0 °F 10.6 °F 53% 30.33 in 10.0 mi WSW 6.9 mph - 0.00 in   Clear
6:01 PM 28.4 °F 20.4 °F 10.4 °F 47% 30.32 in 10.0 mi WSW 8.1 mph - N/A   Clear
6:12 PM 28.4 °F 20.4 °F 10.4 °F 47% 30.32 in 10.0 mi West 8.1 mph - N/A   Clear
6:55 PM 23.4 °F 16.2 °F 11.5 °F 60% 30.34 in 10.0 mi SW 5.8 mph - 0.00 in   Clear
6:59 PM 24.8 °F 16.9 °F 10.4 °F 54% 30.34 in 10.0 mi WSW 6.9 mph - N/A   Clear
7:09 PM 26.6 °F 19.1 °F 10.4 °F 51% 30.34 in 10.0 mi West 6.9 mph - N/A   Clear
7:55 PM 25.5 °F 21.3 °F 11.7 °F 56% 30.34 in 10.0 mi South 3.5 mph - 0.00 in   Clear
8:16 PM 24.8 °F 19.1 °F 12.2 °F 59% 30.34 in 10.0 mi SW 4.6 mph - N/A   Clear
8:33 PM 26.6 °F 22.6 °F 10.4 °F 51% 30.34 in 10.0 mi WSW 3.5 mph - N/A   Clear
8:55 PM 25.2 °F 20.9 °F 10.4 °F 54% 30.35 in 10.0 mi SSE 3.5 mph - 0.00 in   Clear
9:55 PM 25.0 °F 20.7 °F 9.7 °F 52% 30.34 in 10.0 mi SSW 3.5 mph - N/A   Clear
10:55 PM 21.6 °F 15.3 °F 9.0 °F 58% 30.35 in 10.0 mi SE 4.6 mph - N/A   Clear
11:32 PM 21.2 °F 16.4 °F 12.2 °F 68% 30.35 in 10.0 mi SE 3.5 mph - N/A Snow Light Snow
11:42 PM 23.0 °F 18.4 °F 10.4 °F 59% 30.34 in 10.0 mi SSE 3.5 mph - N/A   Clear
11:55 PM 21.6 °F - 9.9 °F 61% 30.34 in 10.0 mi Calm Calm - 0.00 in   Clear